STARLINK-30285, 57840

Orbit data source: Space-Track

STARLINK-30285, 57840 is a payload satellite owned by SpaceX/Seattle (US) in LEO that was launched on Tue, 12 Sep 2023 UTC via an FALCON 9 launch vehicle from the Air Force Western Test Range (AFWTR). Payload-class satellites include a variety of spacecraft equipped with specific instruments for various scientific and technological missions. These include communications satellites like Starlink; space stations such as the ISS; scientific satellites like the Hubble; Earth observation satellites from companies like Planet Labs, Umbra, and HawkEye 360; GPS; miniature CubeSats for education and research; and military/defense satellites.

Loading next visibility...
Identifier
57840, 2023-141A
Orbit
LEO
Country
Flag of USUS
Related business
Manufacturer
SpaceX/Seattle
Mission
Operational Commercial Communications
Bus & Motor
STARLINK V2M, Unknown motor
Mass
730 kg wet, ~700 kg dry
Launch date (UTC)
2023-09-12 (3 years ago)
Launch vehicle
FALCON 9
Launch site
Air Force Western Test Range (AFWTR)
Object type
Payload
Rocket body
Debris
Shape & HBR
Box + 2 Pan, 17.7 m
Radar Cross Section
33.884 m², Large (>1 m²)

Expand to show TLE details & history
Last TLE update: 2 days ago

TLE from 2 days ago
0 STARLINK-30285
1 57840U 23141A   26171.35596809  .00000181  00000-0  17591-4 0  9994
2 57840  53.1603 166.7459 0001433  79.2633 280.8530 15.31707547156056
Epoch: 2026-06-20T08:32Z
TLE epoch observation values (Epoch: 2026-06-20T08:32:35.642Z)
Latitude
-0.00002°
Longitude
130.0256°
Altitude
471.433 km
Speed
7.632 km/s
True Right ascension
11h 06m 59s
True Declination
0° 00' 00"
Sunlit
Object was in daylight at epoch
Visualization orbit readout
Latitude
Unknown
Longitude
Unknown
Altitude
Unknown
Speed
Unknown
Apparent Right ascension
Unknown
Apparent Declination
Unknown
Sunlit
N/A
Visualization observer readout
Local Sidereal Time
21:32:24
Azimuth
Unknown
Elevation
Unknown
Doppler factor
Unknown
Orbital elements
Apogee altitude
471.956 km
Perigee altitude
469.993 km
Semi-major axis
6,849.111 km
Eccentricity
0.00014
Inclination
53.1603°
RAAN
166.7459°
Arg. of periapsis
79.2633°
True anomaly
280.83687°
Mean anomaly
280.853°
Eccentric anomaly
280.84494°
Mean motion
3.82906 °/min
Orbital period
94.02 mins
BSTAR
0.000017591
Loading maneuver chart data...
Computing Atmospheric mass density...
Loading historical data...
Loading historical data...
Loading historical data...
Loading historical data...
Loading historical data...
Loading historical data...
Loading historical data...

Documentation

Showing up to 5 results
|